STARLINK-36305, 68189

Orbit data source: Space-Track

STARLINK-36305, 68189 is a payload satellite owned by SpaceX/Seattle (US) in LEO that was launched on Sat, 14 Mar 2026 UTC via an FALCON 9 launch vehicle from the Air Force Eastern Test Range (AFETR). Payload-class satellites include a variety of spacecraft equipped with specific instruments for various scientific and technological missions. These include communications satellites like Starlink; space stations such as the ISS; scientific satellites like the Hubble; Earth observation satellites from companies like Planet Labs, Umbra, and HawkEye 360; GPS; miniature CubeSats for education and research; and military/defense satellites.

Loading next visibility...
Identifier
68189, 2026-050Y
Orbit
LEO
Country
Flag of USUS
Related business
Manufacturer
SpaceX/Seattle
Mission
Operational spacecraft
Bus & Motor
STARLINK V2MO, Unknown motor
Mass
575 kg wet, ~530 kg dry
Launch date (UTC)
2026-03-14 (3 months ago)
Launch vehicle
FALCON 9
Launch site
Air Force Eastern Test Range (AFETR)
Object type
Payload
Rocket body
Debris
Shape & HBR
Unknown shape, 17.7 m
Radar Cross Section
Large (>1 m²)

Expand to show TLE details & history
Last TLE update: 15 hours ago

TLE from 15 hours ago
0 STARLINK-36305
1 68189U 26050Y   26171.20534850  .00029146  00000-0  86998-3 0  9994
2 68189  53.1595 149.5186 0001140  74.2583 285.8546 15.34414907 16295
Epoch: 2026-06-20T04:55Z
TLE epoch observation values (Epoch: 2026-06-20T04:55:42.110Z)
Latitude
0.00004°
Longitude
167.16986°
Altitude
463.347 km
Speed
7.636 km/s
True Right ascension
09h 58m 04s
True Declination
0° 00' 00"
Sunlit
Object was in daylight at epoch
Visualization orbit readout
Latitude
Unknown
Longitude
Unknown
Altitude
Unknown
Speed
Unknown
Apparent Right ascension
Unknown
Apparent Declination
Unknown
Sunlit
N/A
Visualization observer readout
Local Sidereal Time
07:21:12
Azimuth
Unknown
Elevation
Unknown
Doppler factor
Unknown
Orbital elements
Apogee altitude
463.696 km
Perigee altitude
462.136 km
Semi-major axis
6,841.053 km
Eccentricity
0.00011
Inclination
53.1595°
RAAN
149.5186°
Arg. of periapsis
74.2583°
True anomaly
285.84203°
Mean anomaly
285.8546°
Eccentric anomaly
285.84832°
Mean motion
3.83582 °/min
Orbital period
93.85 mins
BSTAR
0.00086998
Loading maneuver chart data...
Computing Atmospheric mass density...
Loading historical data...
Loading historical data...
Loading historical data...
Loading historical data...
Loading historical data...
Loading historical data...
Loading historical data...

Documentation

Showing up to 5 results
|